TimeEST,TemperatureF,Dew PointF,Humidity,Sea Level PressureIn,VisibilityMPH,Wind Direction,Wind SpeedMPH,Gust SpeedMPH,PrecipitationIn,Events,Conditions,WindDirDegrees,DateUTC
12:53 AM,21.9,16.0,78,30.09,10.0,NNW,3.5,-,N/A,,Overcast,330,2013-01-02 05:53:00
1:53 AM,21.9,15.1,75,30.10,10.0,NW,3.5,-,N/A,,Overcast,310,2013-01-02 06:53:00
2:53 AM,21.9,14.0,72,30.13,10.0,WNW,5.8,-,N/A,,Overcast,300,2013-01-02 07:53:00
3:53 AM,21.0,12.9,71,30.13,10.0,West,4.6,-,N/A,,Overcast,270,2013-01-02 08:53:00
4:32 AM,19.4,12.2,74,30.07,10.0,West,4.6,-,N/A,,Scattered Clouds,280,2013-01-02 09:32:00
4:53 AM,19.0,10.9,71,30.14,10.0,WNW,4.6,-,N/A,,Clear,300,2013-01-02 09:53:00
5:53 AM,18.0,10.9,74,30.16,10.0,West,4.6,-,N/A,,Clear,280,2013-01-02 10:53:00
6:53 AM,16.0,10.0,77,30.17,10.0,SW,3.5,-,N/A,,Clear,230,2013-01-02 11:53:00
7:53 AM,16.0,10.0,77,30.19,10.0,SW,3.5,-,N/A,,Clear,230,2013-01-02 12:53:00
8:35 AM,15.8,10.4,79,30.12,10.0,SW,3.5,-,N/A,,Mostly Cloudy,230,2013-01-02 13:35:00
8:53 AM,17.1,10.9,77,30.20,10.0,SW,3.5,-,N/A,,Overcast,220,2013-01-02 13:53:00
10:38 AM,19.4,12.2,74,30.16,10.0,SW,9.2,-,N/A,,Scattered Clouds,220,2013-01-02 15:38:00
10:53 AM,19.9,12.0,71,30.23,10.0,WSW,6.9,-,N/A,,Clear,240,2013-01-02 15:53:00
11:50 AM,23.0,14.0,68,30.16,10.0,West,6.9,-,N/A,,Mostly Cloudy,260,2013-01-02 16:50:00
11:53 AM,23.0,12.9,65,30.22,10.0,West,6.9,-,N/A,,Mostly Cloudy,260,2013-01-02 16:53:00
12:53 PM,23.0,14.0,68,30.21,10.0,WSW,11.5,-,N/A,,Scattered Clouds,250,2013-01-02 17:53:00
1:53 PM,24.1,10.0,55,30.21,10.0,West,9.2,-,N/A,,Clear,270,2013-01-02 18:53:00
2:53 PM,25.0,10.9,55,30.20,10.0,WNW,8.1,-,N/A,,Clear,290,2013-01-02 19:53:00
3:53 PM,25.0,9.0,51,30.21,10.0,WSW,4.6,-,N/A,,Clear,240,2013-01-02 20:53:00
4:53 PM,23.0,9.0,55,30.22,10.0,WSW,4.6,-,N/A,,Clear,240,2013-01-02 21:53:00
5:53 PM,21.9,9.0,58,30.23,10.0,WSW,4.6,-,N/A,,Clear,240,2013-01-02 22:53:00
6:53 PM,21.0,9.0,60,30.23,10.0,SW,3.5,-,N/A,,Clear,230,2013-01-02 23:53:00
8:53 PM,21.0,10.0,63,30.25,10.0,Calm,Calm,-,N/A,,Clear,0,2013-01-03 01:53:00
9:53 PM,19.9,9.0,62,30.26,10.0,SW,3.5,-,N/A,,Clear,230,2013-01-03 02:53:00
10:53 PM,19.9,9.0,62,30.26,10.0,SSW,3.5,-,N/A,,Clear,210,2013-01-03 03:53:00
11:53 PM,19.0,10.0,68,30.25,10.0,South,3.5,-,N/A,,Clear,190,2013-01-03 04:53:00